Woodinville, Washington, United States (98072)
Lat: 47.75N, Lon: 122.16W
Wx Zone: WAZ505
Local Info
Past Weather Observations for Thursday, February 4, 2016

NOTE: This archive is for the closest National Weather Service station to Woodinville. Information may differ from the station used for current weather conditions.

Click here for Long-term Archive

Time Weather Temperature Dewpoint Humidity Pressure Winds Precip Visibility
23:53
Partly Cloudy
45°F / 7°C 39°F / 4°C 81% 30.36 in
(1028 mb)
SE 5.8 mph
(SE 9 kph)
- 10SM
22:53
Clear
45°F / 7°C 41°F / 5°C 87% 30.33 in
(1027 mb)
SE 6.9 mph
(SE 11 kph)
- 10SM
21:53
Partly Cloudy
46°F / 8°C 43°F / 6°C 87% 30.36 in
(1028 mb)
SSE 15 mph
(SSE 24 kph)
- 10SM
21:08
Partly Cloudy
46°F / 8°C 43°F / 6°C 87% 30.36 in
(1028 mb)
SE 5.8 mph
(SE 9 kph)
- 10SM
20:53
Mostly Cloudy
46°F / 8°C 43°F / 6°C 87% 30.36 in
(1028 mb)
Variable 5.8 mph
(Variable 9 kph)
- 10SM
19:53
Overcast
46°F / 8°C 43°F / 6°C 87% 30.36 in
(1028 mb)
SSE 11.5 mph
(SSE 19 kph)
- 10SM
19:51
Overcast
46°F / 8°C 43°F / 6°C 87% 30.36 in
(1028 mb)
SSE 12.7 mph
(SSE 20 kph)
- 10SM
19:30
Overcast
46°F / 8°C 43°F / 6°C 87% 30.36 in
(1028 mb)
Variable 4.6 mph
(Variable 7 kph)
- 10SM
19:07
Overcast
45°F / 7°C 41°F / 5°C 87% 30.36 in
(1028 mb)
SE 5.8 mph
(SE 9 kph)
- 10SM
18:53
Overcast
45°F / 7°C 41°F / 5°C 87% 30.36 in
(1028 mb)
Variable 5.8 mph
(Variable 9 kph)
- 10SM
17:53
Overcast
45°F / 7°C 39°F / 4°C 81% 30.39 in
(1029 mb)
Variable 4.6 mph
(Variable 7 kph)
- 10SM
16:53
Overcast
45°F / 7°C 39°F / 4°C 81% 30.39 in
(1029 mb)
SSE 6.9 mph
(SSE 11 kph)
- 10SM
16:25
Overcast
45°F / 7°C 39°F / 4°C 81% 30.39 in
(1029 mb)
Variable 4.6 mph
(Variable 7 kph)
- 10SM
15:53
Overcast
45°F / 7°C 39°F / 4°C 81% 30.39 in
(1029 mb)
Variable 5.8 mph
(Variable 9 kph)
0.00 in
(0.00 mm)
10SM
14:53
Overcast
Light Rain
45°F / 7°C 39°F / 4°C 81% 30.39 in
(1029 mb)
SSE 9.2 mph
(SSE 15 kph)
0.02 in
(0.51 mm)
10SM
14:05
Overcast
45°F / 7°C 39°F / 4°C 81% 30.36 in
(1028 mb)
S 10.4 mph
(S 17 kph)
- 10SM
13:53
Overcast
45°F / 7°C 39°F / 4°C 81% 30.36 in
(1028 mb)
S 13.8 mph
(S 22 kph)
- 10SM
13:43
Overcast
45°F / 7°C 39°F / 4°C 81% 30.36 in
(1028 mb)
S 11.5 mph
(S 19 kph)
- 10SM
12:53
Overcast
45°F / 7°C 39°F / 4°C 81% 30.36 in
(1028 mb)
S 9.2 mph
(S 15 kph)
- 10SM
11:53
Overcast
46°F / 8°C 39°F / 4°C 76% 30.36 in
(1028 mb)
SSE 13.8 mph
(SSE 22 kph)
- 10SM
10:53
Overcast
46°F / 8°C 41°F / 5°C 82% 30.33 in
(1027 mb)
SSE 6.9 mph
(SSE 11 kph)
- 10SM
09:53
Overcast
45°F / 7°C 39°F / 4°C 81% 30.33 in
(1027 mb)
S 6.9 mph
(S 11 kph)
- 10SM
08:53
Overcast
45°F / 7°C 39°F / 4°C 81% 30.3 in
(1026 mb)
S 5.8 mph
(S 9 kph)
- 10SM
08:51
Overcast
45°F / 7°C 39°F / 4°C 81% 30.3 in
(1026 mb)
S 6.9 mph
(S 11 kph)
- 10SM
08:43
Overcast
45°F / 7°C 39°F / 4°C 81% 30.3 in
(1026 mb)
S 6.9 mph
(S 11 kph)
- 10SM
07:53
Overcast
43°F / 6°C 39°F / 4°C 87% 30.27 in
(1025 mb)
SSE 6.9 mph
(SSE 11 kph)
- 10SM
06:53
Overcast
43°F / 6°C 39°F / 4°C 87% 30.24 in
(1024 mb)
S 5.8 mph
(S 9 kph)
- 10SM
06:37
Overcast
43°F / 6°C 39°F / 4°C 87% 30.24 in
(1024 mb)
SSE 8.1 mph
(SSE 13 kph)
- 10SM
05:53
Overcast
43°F / 6°C 39°F / 4°C 87% 30.24 in
(1024 mb)
SSE 9.2 mph
(SSE 15 kph)
- 10SM
04:53
Overcast
43°F / 6°C 39°F / 4°C 87% 30.21 in
(1023 mb)
SSE 11.5 mph
(SSE 19 kph)
- 10SM
03:53
Overcast
43°F / 6°C 39°F / 4°C 87% 30.18 in
(1022 mb)
S 11.5 mph
(S 19 kph)
- 10SM
03:49
Mostly Cloudy
43°F / 6°C 39°F / 4°C 87% 30.18 in
(1022 mb)
S 10.4 mph
(S 17 kph)
- 10SM
03:03
Mostly Cloudy
43°F / 6°C 39°F / 4°C 87% 30.15 in
(1021 mb)
S 9.2 mph
(S 15 kph)
- 10SM
02:53
Partly Cloudy
43°F / 6°C 39°F / 4°C 87% 30.15 in
(1021 mb)
S 10.4 mph
(S 17 kph)
- 10SM
01:53
Mostly Cloudy
43°F / 6°C 37°F / 3°C 81% 30.09 in
(1019 mb)
SSE 15 mph
(SSE 24 kph)
- 10SM
01:30
Overcast
43°F / 6°C 39°F / 4°C 87% 30.09 in
(1019 mb)
S 13.8 mph
(S 22 kph)
- 10SM
01:15
Overcast
45°F / 7°C 39°F / 4°C 81% 30.06 in
(1018 mb)
S 15 mph
(S 24 kph)
- 10SM
01:03
Overcast
45°F / 7°C 39°F / 4°C 81% 30.06 in
(1018 mb)
S 17.3 mph
(S 28 kph)
- 10SM
00:53
Overcast
45°F / 7°C 39°F / 4°C 81% 30.06 in
(1018 mb)
S 16.1 mph
(S 26 kph)
0.00 in
(0.00 mm)
10SM
00:06
Partly Cloudy
Light Rain
45°F / 7°C 39°F / 4°C 81% 30.06 in
(1018 mb)
S 17.3 mph
(S 28 kph)
0.00 in
(0.00 mm)
10SM
Time Weather Temperature Dewpoint Humidity Pressure Winds Precip Visibility


Weather for websites

WeatherForYou.com, LLC is not responsible for any damages or problems caused by this service. Current weather conditions are obtained from the closest station including government and personal stations which may have varying degrees of accuracy. Weather forecasts are derived from the NOAA NDFD. Like all things, this site belongs to Jesus Christ... He just trusts us to maintain it. If you have any questions or comments email webmaster@weatherforyou.com

Copyright © 2016, WeatherForYou.com LLC. All rights reserved.